Time,TemperatureF,DewpointF,PressureIn,WindDirection,WindDirectionDegrees,WindSpeedMPH,WindSpeedGustMPH,Humidity,HourlyPrecipIn,Conditions,Clouds,dailyrainin,SolarRadiationWatts/m^2,SoftwareType,DateUTC
2013-07-03 00:06:00,73.2,72.0,30.13,NW,317,0.0,1.0,96,0.00,,,0.00,0,weatherlink.com 1.10,2013-07-03 04:06:00,
2013-07-03 00:21:00,73.1,72.0,30.13,NW,317,0.0,0.0,96,0.00,,,0.00,0,weatherlink.com 1.10,2013-07-03 04:21:00,
2013-07-03 00:36:00,72.9,72.0,30.13,NW,317,0.0,0.0,96,0.00,,,0.00,0,weatherlink.com 1.10,2013-07-03 04:36:00,
2013-07-03 00:51:00,72.8,72.0,30.13,NW,317,0.0,0.0,96,0.00,,,0.00,0,weatherlink.com 1.10,2013-07-03 04:51:00,
2013-07-03 01:06:00,72.7,72.0,30.13,NW,317,0.0,1.0,96,0.00,,,0.00,0,weatherlink.com 1.10,2013-07-03 05:06:00,
2013-07-03 01:21:00,72.6,71.0,30.13,NW,317,0.0,0.0,96,0.00,,,0.00,0,weatherlink.com 1.10,2013-07-03 05:21:00,
2013-07-03 01:36:00,72.5,72.0,30.13,NW,320,0.0,2.0,97,0.00,,,0.00,0,weatherlink.com 1.10,2013-07-03 05:36:00,
2013-07-03 02:06:00,72.4,72.0,30.13,WNW,290,0.0,2.0,97,0.00,,,0.00,0,weatherlink.com 1.10,2013-07-03 06:06:00,
2013-07-03 02:21:00,72.4,72.0,30.13,SW,215,0.0,3.0,97,0.00,,,0.00,0,weatherlink.com 1.10,2013-07-03 06:21:00,
2013-07-03 02:36:00,72.3,71.0,30.14,SSW,201,0.0,2.0,97,0.00,,,0.00,0,weatherlink.com 1.10,2013-07-03 06:36:00,
2013-07-03 02:51:00,72.3,71.0,30.13,NW,317,0.0,2.0,97,0.00,,,0.00,0,weatherlink.com 1.10,2013-07-03 06:51:00,
2013-07-03 03:06:00,72.2,71.0,30.14,NW,317,0.0,1.0,97,0.00,,,0.00,0,weatherlink.com 1.10,2013-07-03 07:06:00,
2013-07-03 03:21:00,72.2,71.0,30.14,NW,317,0.0,1.0,97,0.00,,,0.00,0,weatherlink.com 1.10,2013-07-03 07:21:00,
2013-07-03 03:51:00,72.0,71.0,30.14,NW,317,0.0,1.0,97,0.00,,,0.00,0,weatherlink.com 1.10,2013-07-03 07:51:00,
2013-07-03 04:06:00,71.9,71.0,30.14,NW,317,0.0,2.0,97,0.00,,,0.00,0,weatherlink.com 1.10,2013-07-03 08:06:00,
2013-07-03 04:21:00,71.7,71.0,30.14,NW,318,0.0,2.0,97,0.00,,,0.00,0,weatherlink.com 1.10,2013-07-03 08:21:00,
2013-07-03 04:51:00,71.4,71.0,30.15,North,5,0.0,2.0,97,0.00,,,0.00,0,weatherlink.com 1.10,2013-07-03 08:51:00,
2013-07-03 05:06:00,71.3,70.0,30.15,North,5,0.0,1.0,97,0.00,,,0.00,0,weatherlink.com 1.10,2013-07-03 09:06:00,
2013-07-03 05:21:00,71.1,70.0,30.15,North,5,0.0,1.0,97,0.00,,,0.00,0,weatherlink.com 1.10,2013-07-03 09:21:00,
2013-07-03 05:36:00,71.1,70.0,30.16,North,5,0.0,1.0,97,0.01,,,0.01,5,weatherlink.com 1.10,2013-07-03 09:36:00,
2013-07-03 05:51:00,71.1,70.0,30.16,North,5,0.0,0.0,97,0.01,,,0.01,7,weatherlink.com 1.10,2013-07-03 09:51:00,
2013-07-03 06:21:00,71.1,70.0,30.17,North,5,0.0,0.0,97,0.01,,,0.01,25,weatherlink.com 1.10,2013-07-03 10:21:00,
2013-07-03 06:36:00,71.1,70.0,30.17,NNW,342,0.0,3.0,97,0.00,,,0.01,28,weatherlink.com 1.10,2013-07-03 10:36:00,
2013-07-03 06:51:00,71.2,70.0,30.17,North,360,0.0,3.0,97,0.00,,,0.01,33,weatherlink.com 1.10,2013-07-03 10:51:00,
2013-07-03 07:06:00,71.4,71.0,30.18,NW,312,2.0,3.0,97,0.00,,,0.01,46,weatherlink.com 1.10,2013-07-03 11:06:00,
2013-07-03 07:22:00,71.7,71.0,30.18,NW,313,2.0,4.0,97,0.00,,,0.01,76,weatherlink.com 1.10,2013-07-03 11:22:00,
2013-07-03 07:37:00,71.8,71.0,30.19,SSE,159,0.0,2.0,97,0.00,,,0.01,72,weatherlink.com 1.10,2013-07-03 11:37:00,
2013-07-03 08:07:00,72.3,71.0,30.20,NNW,341,3.0,3.0,97,0.00,,,0.01,76,weatherlink.com 1.10,2013-07-03 12:07:00,
2013-07-03 08:22:00,72.5,71.0,30.20,NW,311,0.0,3.0,96,0.00,,,0.01,120,weatherlink.com 1.10,2013-07-03 12:22:00,
2013-07-03 08:37:00,72.8,72.0,30.20,NW,304,1.0,2.0,96,0.00,,,0.01,137,weatherlink.com 1.10,2013-07-03 12:37:00,
2013-07-03 08:52:00,73.0,72.0,30.20,NW,313,1.0,5.0,96,0.00,,,0.01,151,weatherlink.com 1.10,2013-07-03 12:52:00,
2013-07-03 09:07:00,73.3,72.0,30.21,South,186,2.0,3.0,95,0.00,,,0.01,137,weatherlink.com 1.10,2013-07-03 13:07:00,
2013-07-03 09:22:00,73.8,72.0,30.21,North,351,0.0,3.0,95,0.00,,,0.01,146,weatherlink.com 1.10,2013-07-03 13:22:00,
2013-07-03 09:37:00,74.2,72.0,30.21,SSE,149,0.0,4.0,94,0.00,,,0.01,192,weatherlink.com 1.10,2013-07-03 13:37:00,
2013-07-03 09:52:00,74.6,73.0,30.20,NNW,346,1.0,2.0,93,0.00,,,0.01,169,weatherlink.com 1.10,2013-07-03 13:52:00,
2013-07-03 10:22:00,76.3,73.0,30.20,SSE,152,0.0,3.0,90,0.00,,,0.01,179,weatherlink.com 1.10,2013-07-03 14:22:00,
2013-07-03 10:37:00,76.8,73.0,30.20,South,186,2.0,2.0,89,0.00,,,0.01,134,weatherlink.com 1.10,2013-07-03 14:37:00,
2013-07-03 10:53:00,77.9,74.0,30.20,NNE,33,2.0,3.0,86,0.00,,,0.01,98,weatherlink.com 1.10,2013-07-03 14:53:00,
2013-07-03 11:08:00,79.6,74.0,30.20,East,94,1.0,4.0,82,0.00,,,0.01,179,weatherlink.com 1.10,2013-07-03 15:08:00,
2013-07-03 11:23:00,79.5,74.0,30.20,SSW,208,0.0,2.0,84,0.00,,,0.01,1048,weatherlink.com 1.10,2013-07-03 15:23:00,
2013-07-03 11:38:00,81.3,75.0,30.19,SSW,196,0.0,3.0,80,0.00,,,0.01,1143,weatherlink.com 1.10,2013-07-03 15:38:00,
2013-07-03 11:53:00,80.4,74.0,30.20,North,5,0.0,4.0,80,0.00,,,0.01,615,weatherlink.com 1.10,2013-07-03 15:53:00,
2013-07-03 12:08:00,79.9,74.0,30.20,West,276,1.0,2.0,82,0.00,,,0.01,434,weatherlink.com 1.10,2013-07-03 16:08:00,
2013-07-03 12:23:00,79.9,74.0,30.20,SSE,167,0.0,3.0,81,0.00,,,0.01,250,weatherlink.com 1.10,2013-07-03 16:23:00,
2013-07-03 12:38:00,79.9,74.0,30.19,NW,316,0.0,4.0,83,0.00,,,0.01,309,weatherlink.com 1.10,2013-07-03 16:38:00,
2013-07-03 13:08:00,80.9,73.0,30.18,South,186,0.0,4.0,78,0.00,,,0.01,155,weatherlink.com 1.10,2013-07-03 17:08:00,
2013-07-03 13:23:00,79.4,74.0,30.18,South,169,0.0,3.0,83,0.00,,,0.01,165,weatherlink.com 1.10,2013-07-03 17:23:00,
2013-07-03 13:38:00,80.0,75.0,30.18,South,177,0.0,1.0,84,0.00,,,0.01,267,weatherlink.com 1.10,2013-07-03 17:38:00,
2013-07-03 13:53:00,81.0,75.0,30.18,North,360,1.0,4.0,82,0.00,,,0.01,278,weatherlink.com 1.10,2013-07-03 17:53:00,
2013-07-03 14:08:00,80.8,75.0,30.17,WNW,303,0.0,4.0,81,0.00,,,0.01,309,weatherlink.com 1.10,2013-07-03 18:08:00,
2013-07-03 14:23:00,81.3,75.0,30.17,WNW,282,0.0,2.0,81,0.00,,,0.01,322,weatherlink.com 1.10,2013-07-03 18:23:00,
2013-07-03 14:53:00,80.0,74.0,30.17,SW,228,0.0,3.0,81,0.00,,,0.01,197,weatherlink.com 1.10,2013-07-03 18:53:00,
2013-07-03 15:08:00,82.8,75.0,30.16,NW,307,2.0,2.0,78,0.00,,,0.01,1030,weatherlink.com 1.10,2013-07-03 19:08:00,
2013-07-03 15:23:00,82.7,75.0,30.16,West,265,1.0,4.0,77,0.00,,,0.01,283,weatherlink.com 1.10,2013-07-03 19:23:00,
2013-07-03 15:38:00,82.3,75.0,30.15,SW,217,0.0,2.0,78,0.00,,,0.01,248,weatherlink.com 1.10,2013-07-03 19:38:00,
2013-07-03 15:53:00,83.7,76.0,30.15,NE,36,2.0,4.0,77,0.00,,,0.01,937,weatherlink.com 1.10,2013-07-03 19:53:00,
2013-07-03 16:08:00,85.5,76.0,30.14,NW,306,0.0,4.0,72,0.00,,,0.01,863,weatherlink.com 1.10,2013-07-03 20:08:00,
2013-07-03 16:23:00,83.1,74.0,30.15,NNW,331,2.0,4.0,75,0.00,,,0.01,276,weatherlink.com 1.10,2013-07-03 20:23:00,
2013-07-03 16:53:00,85.5,76.0,30.14,North,360,1.0,4.0,73,0.00,,,0.01,603,weatherlink.com 1.10,2013-07-03 20:53:00,
2013-07-03 17:08:00,86.0,75.0,30.14,NNW,337,2.0,3.0,70,0.00,,,0.01,587,weatherlink.com 1.10,2013-07-03 21:08:00,
2013-07-03 17:23:00,85.7,76.0,30.14,SSW,192,1.0,3.0,72,0.00,,,0.01,102,weatherlink.com 1.10,2013-07-03 21:23:00,
2013-07-03 17:38:00,85.7,76.0,30.13,West,271,0.0,3.0,72,0.00,,,0.01,473,weatherlink.com 1.10,2013-07-03 21:38:00,
2013-07-03 18:08:00,84.6,75.0,30.13,North,355,0.0,2.0,73,0.00,,,0.01,127,weatherlink.com 1.10,2013-07-03 22:08:00,
2013-07-03 18:23:00,83.6,75.0,30.13,North,351,0.0,3.0,75,0.00,,,0.01,334,weatherlink.com 1.10,2013-07-03 22:23:00,
2013-07-03 18:38:00,84.5,75.0,30.13,East,86,0.0,2.0,72,0.00,,,0.01,58,weatherlink.com 1.10,2013-07-03 22:38:00,
2013-07-03 18:53:00,84.2,75.0,30.14,WNW,301,0.0,2.0,74,0.00,,,0.01,232,weatherlink.com 1.10,2013-07-03 22:53:00,
2013-07-03 19:38:00,80.1,74.0,30.15,North,355,0.0,1.0,81,0.00,,,0.01,44,weatherlink.com 1.10,2013-07-03 23:38:00,
2013-07-03 19:53:00,79.6,74.0,30.15,North,355,0.0,2.0,82,0.00,,,0.01,23,weatherlink.com 1.10,2013-07-03 23:53:00,
2013-07-03 20:08:00,79.3,74.0,30.16,North,355,0.0,1.0,83,0.00,,,0.01,12,weatherlink.com 1.10,2013-07-04 00:08:00,
2013-07-03 20:23:00,79.4,74.0,30.16,North,355,0.0,1.0,82,0.00,,,0.01,5,weatherlink.com 1.10,2013-07-04 00:23:00,
2013-07-03 20:38:00,79.4,74.0,30.16,North,355,0.0,1.0,82,0.00,,,0.01,0,weatherlink.com 1.10,2013-07-04 00:38:00,
2013-07-03 20:53:00,78.9,73.0,30.16,NW,307,1.0,2.0,82,0.00,,,0.01,0,weatherlink.com 1.10,2013-07-04 00:53:00,
2013-07-03 21:08:00,78.5,73.0,30.16,North,351,0.0,4.0,83,0.00,,,0.01,0,weatherlink.com 1.10,2013-07-04 01:08:00,
2013-07-03 21:23:00,78.4,73.0,30.17,WSW,239,0.0,3.0,83,0.00,,,0.01,0,weatherlink.com 1.10,2013-07-04 01:23:00,
2013-07-03 21:38:00,78.3,72.0,30.17,East,100,0.0,5.0,82,0.00,,,0.01,0,weatherlink.com 1.10,2013-07-04 01:38:00,
2013-07-03 21:53:00,78.3,73.0,30.18,SSE,167,1.0,2.0,83,0.00,,,0.01,0,weatherlink.com 1.10,2013-07-04 01:53:00,
2013-07-03 22:08:00,78.1,73.0,30.18,WNW,290,4.0,4.0,83,0.00,,,0.01,0,weatherlink.com 1.10,2013-07-04 02:08:00,
2013-07-03 22:23:00,77.8,72.0,30.18,NW,319,0.0,3.0,83,0.00,,,0.01,0,weatherlink.com 1.10,2013-07-04 02:23:00,
2013-07-03 22:38:00,77.6,73.0,30.17,South,179,0.0,2.0,84,0.00,,,0.01,0,weatherlink.com 1.10,2013-07-04 02:38:00,
2013-07-03 22:53:00,77.4,72.0,30.17,West,259,0.0,2.0,84,0.00,,,0.01,0,weatherlink.com 1.10,2013-07-04 02:53:00,
2013-07-03 23:08:00,77.1,72.0,30.18,West,259,0.0,1.0,84,0.00,,,0.01,0,weatherlink.com 1.10,2013-07-04 03:08:00,
2013-07-03 23:23:00,76.7,72.0,30.17,West,259,0.0,0.0,85,0.00,,,0.01,0,weatherlink.com 1.10,2013-07-04 03:23:00,
2013-07-03 23:53:00,75.8,71.0,30.18,West,259,0.0,1.0,86,0.00,,,0.01,0,weatherlink.com 1.10,2013-07-04 03:53:00,